Location: Stara Lesna
(49.1528°N, 20.2911°E)
Time: 11:50:05
(UTC+02:00)

NOSS 3-2 (A) - Pass Details

Date: 21 September 2019
Orbit: 818 x 1390 km, 63.4° (Epoch: 08 October)

Event Time Altitude Azimuth Distance (km) Brightness Sun altitude
Exits shadow 04:20:34 29° 278° (W) 1,656 4.3 -20.1°
Maximum altitude 04:23:09 43° 328° (NNW) 1,355 4.2 -19.7°
Drops below altitude 10° 04:29:43 10° 39° (NE) 2,958 7.0 -18.8°
Sets 04:32:45 0° 46° (NE) 4,014 8.0 -18.3°
